HAIYANG-2D (48621 NORAD) Tracking and Keplerian Element Data

This shows tracking and keplerian element data for the satellite.

Feedback or suggestion? Click here.




ElementValue
Catalog48621
NameHAIYANG-2D
Epoch Orbit1048
Epoch Day214.97301461
Epoch Year2021
RAAN54.3298
Inclination65.9976
Eccentricity0.0008159
Argument of Perigee252.7484
Mean Anonmoly107.268
Mean Motion13.83372335
Decay Rate-8.2E-07
L11 48621U 21043A 21214.97301461 -.00000082 00000-0 -24439-6 0 9992
L22 48621 65.9976 54.3298 0008159 252.7484 107.2680 13.83372335 10486

Live tracking and technical data element details for HAIYANG-2D (NORAD 48621). HAIYANG-2D can be tracked NOW for your location showing map with azimuth and elevation plus other details from your city location.

Track the satellite on the map from your city or location and see movement details for azimuth, elevation, latitude, longitude, range, height, and movement on the map or in text.







IsCatalogInMostPopularTable: catalog: 48621, numindb: 20
Update: records affected: 1



GetName: 48621 HAIYANG-2D

Hit Count: updated at: Tue, 03 Aug 2021 21:24:05 GMT